Location: Newark
(25.6108°S, 54.5803°W)
Time: 01:16:46
(UTC+00:00)

Courier 1B Rocket - All Passes

Search period start: 27 October 2020 00:00
Search period end: 06 November 2020 00:00
Orbit: 920 x 1202 km, 28.2° (Epoch: 26 October)

Date Brightness Start Highest point End Pass type
(mag) Time Alt. Az. Time Alt. Az. Time Alt. Az.
27 Oct - 06:51:41 10° N 06:55:20 14° NNE 06:58:53 10° ENE visible
27 Oct - 08:41:49 10° NW 08:48:38 42° NNE 08:55:02 10° E daylight
27 Oct - 10:35:03 10° WNW 10:42:07 89° NNE 10:48:42 10° ESE daylight
27 Oct - 12:29:11 10° W 12:35:52 70° S 12:42:11 10° E daylight
27 Oct - 14:23:03 10° WSW 14:29:30 86° NNW 14:35:47 10° ENE daylight
27 Oct - 16:17:01 10° W 16:22:41 36° NNW 16:28:23 10° NE daylight
28 Oct - 07:41:06 10° NNW 07:47:33 31° NNE 07:53:38 10° E visible
28 Oct - 09:33:43 10° WNW 09:40:58 74° NNE 09:47:41 10° ESE daylight
28 Oct - 11:27:46 10° W 11:34:41 72° S 11:41:09 10° E daylight
28 Oct - 13:21:50 10° WSW 13:28:27 81° S 13:34:46 10° E daylight
28 Oct - 15:15:40 10° W 15:21:48 51° NNW 15:27:49 10° NE daylight
28 Oct - 17:11:05 10° WNW 17:14:45 16° NNW 17:18:26 10° N daylight
29 Oct - 06:40:47 10° NNW 06:46:26 23° NNE 06:51:53 10° ENE visible
29 Oct - 08:32:31 10° NW 08:39:49 59° NNE 08:46:38 10° E daylight
29 Oct - 10:26:18 10° W 10:33:29 79° S 10:40:09 10° ESE daylight
29 Oct - 12:20:31 10° W 12:27:19 73° S 12:33:43 10° E daylight
29 Oct - 14:14:24 10° W 14:20:52 68° NNW 14:27:04 10° ENE daylight
29 Oct - 16:08:56 10° W 16:13:53 24° NNW 16:18:49 10° NNE daylight
30 Oct - 05:41:07 10° N 05:45:18 15° NNE 05:49:24 10° ENE visible
30 Oct - 07:31:30 10° NW 07:38:40 45° NNE 07:45:25 10° E visible
30 Oct - 09:24:51 10° WNW 09:32:16 90° SSW 09:39:08 10° ESE daylight
30 Oct - 11:19:06 10° W 11:26:08 71° S 11:32:39 10° E daylight
30 Oct - 13:13:08 10° WSW 13:19:51 85° NNW 13:26:12 10° ENE daylight
30 Oct - 15:07:16 10° W 15:13:02 35° NNW 15:18:40 10° NE daylight
31 Oct - 06:30:46 10° NNW 06:37:31 33° NNE 06:43:59 10° E visible
31 Oct - 08:23:28 10° WNW 08:31:02 76° NNE 08:38:06 10° ESE visible
31 Oct - 10:17:36 10° W 10:24:53 73° S 10:31:37 10° E daylight
31 Oct - 12:11:48 10° WSW 12:18:45 82° S 12:25:13 10° E daylight
31 Oct - 14:05:49 10° W 14:12:09 50° NNW 14:18:11 10° NE daylight
31 Oct - 16:01:28 10° WNW 16:05:03 16° NNW 16:08:35 10° N daylight
01 Nov - 05:30:25 10° NNW 05:36:22 24° NNE 05:42:10 10° E visible
01 Nov - 07:22:13 10° WNW 07:29:48 61° NNE 07:36:58 10° E visible
01 Nov - 09:16:05 10° W 09:23:36 79° S 09:30:34 10° ESE daylight
01 Nov - 11:10:24 10° W 11:17:34 74° S 11:24:10 10° E daylight
01 Nov - 13:04:26 10° W 13:11:11 67° NNW 13:17:29 10° ENE daylight
01 Nov - 14:59:09 10° W 15:04:12 24° NNW 15:09:07 10° NNE daylight
02 Nov - 04:30:43 10° N 04:35:13 16° NNE 04:39:40 10° ENE visible
02 Nov - 06:21:12 10° NW 06:28:35 46° NNE 06:35:41 10° E visible
02 Nov - 08:14:35 10° WNW 08:22:18 89° SSW 08:29:30 10° ESE visible
02 Nov - 10:08:55 10° W 10:16:17 72° S 10:23:07 10° E daylight
02 Nov - 12:03:04 10° WSW 12:10:07 84° NNW 12:16:39 10° ENE daylight
02 Nov - 13:57:22 10° W 14:03:21 35° NNW 14:09:02 10° NE daylight
03 Nov - 05:20:28 10° NW 05:27:24 35° NNE 05:34:10 10° E visible
03 Nov - 07:13:12 10° WNW 07:20:59 77° NNE 07:28:23 10° ESE visible
03 Nov - 09:07:22 10° W 09:14:58 73° S 09:22:01 10° E daylight
03 Nov - 11:01:40 10° WSW 11:08:57 83° S 11:15:41 10° E daylight
03 Nov - 12:55:48 10° W 13:02:25 50° NNW 13:08:37 10° NE daylight
03 Nov - 14:51:40 10° WNW 14:55:19 16° NNW 14:58:55 10° N daylight
04 Nov - 04:20:09 10° NNW 04:26:14 25° NNE 04:32:16 10° E visible
04 Nov - 06:11:58 10° WNW 06:19:42 62° NNE 06:27:10 10° E visible
04 Nov - 08:05:49 10° W 08:13:36 79° S 08:20:54 10° ESE visible
04 Nov - 10:00:11 10° W 10:07:41 75° S 10:14:37 10° E daylight
04 Nov - 11:54:19 10° W 12:01:25 67° NNW 12:07:57 10° ENE daylight
04 Nov - 13:49:13 10° W 13:54:28 24° NNW 13:59:30 10° NNE daylight
05 Nov - 03:20:30 10° N 03:25:05 17° NNE 03:29:43 10° ENE night (unlit)
05 Nov - 05:10:59 10° NW 05:18:26 48° NNE 05:25:48 10° E visible
05 Nov - 07:04:20 10° WNW 07:12:13 89° SSW 07:19:44 10° ESE visible
05 Nov - 08:58:39 10° W 09:06:20 72° S 09:13:29 10° E daylight
05 Nov - 10:52:53 10° WSW 11:00:16 84° NNW 11:07:06 10° ENE daylight
05 Nov - 12:47:19 10° W 12:53:35 36° NNW 12:59:28 10° NE daylight
